Regional Weather Roundup
Issued by NWS Charleston, WV

Home | Current Version | Previous Version | Graphics & Text | Print | Product List | Glossary On
Versions: 1 2 3 4 5 6 7 8 9 10 11 12 13 14 15 16 17 18 19 20 21 22 23 24 25 26 27 28 29 30 31 32 33 34 35 36 37 38 39 40 41 42 43 44 45 46 47 48 49 50
000
ASUS41 KRLX 090510
RWRRLX
West Virginia Regional Weather Roundup
National Weather Service Charleston WV
1200 AM EST FRI DEC 09 2016

Note: "fair" indicates few or no clouds below 12,000 feet with no
significant weather and/or obstructions to visibility.

WVZ003-090600-
Northern Panhandle of West Virginia

CITY           SKY/WX    TMP DP  RH WIND       PRES   REMARKS
WHEELING       FLURRIES  22  15  75 W13       30.27R WCI  10
$$

WVZ009-090600-
Northwest West Virginia

CITY           SKY/WX    TMP DP  RH WIND       PRES   REMARKS
PARKERSBURG    CLOUDY    25  15  66 MISG      30.37S
$$

WVZ006-090600-
Western West Virginia

CITY           SKY/WX    TMP DP  RH WIND       PRES   REMARKS
HUNTINGTON     CLOUDY    25  13  60 NW8       30.40R
$$

WVZ015-090600-
West Central West Virginia

CITY           SKY/WX    TMP DP  RH WIND       PRES   REMARKS
CHARLESTON     MOCLDY    25  12  58 NW14G23   30.38R
$$

WVZ022-031-090600-
North Central West Virginia

CITY           SKY/WX    TMP DP  RH WIND       PRES   REMARKS
CLARKSBURG     CLOUDY    24  12  60 W6        30.30R
MORGANTOWN     FLURRIES  24  12  60 W5        30.28R
$$

WVZ025-035-042-045-090600-
Southern West Virginia

CITY           SKY/WX    TMP DP  RH WIND       PRES   REMARKS
BECKLEY        CLOUDY    24  13  62 NW14      30.22S
LOGAN          CLOUDY    27  18  69 NW6G14    30.31R
BLUEFIELD      CLOUDY    22  11  62 NW14G21   30.22R WCI   9
LEWISBURG      CLOUDY    25  12  58 N15       30.20S
$$

WVZ047-090600-
Northern Mountains of West Virginia

CITY           SKY/WX    TMP DP  RH WIND       PRES   REMARKS
ELKINS         FLURRIES  22  11  62 NW15G22   30.25R WCI   9
$$

WVZ052-090600-
Eastern Panhandle of West Virginia

CITY           SKY/WX    TMP DP  RH WIND       PRES   REMARKS
MARTINSBURG    CLOUDY    30  13  49 NW9G20    30.21R
PETERSBURG     CLOUDY    30  14  52 NW6       30.24R
$$




USA.gov is the U.S. government's official web portal to all federal, state and local government web resources and services.